Weather Roundup
Issued by NWS

Home | Current Version | Previous Version | Text Only | Print | Product List | Glossary On
Versions: 1 2 3 4 5 6 7 8 9 10 11 12 13 14 15 16 17 18 19 20 21 22 23 24 25 26 27 28 29 30 31 32 33 34 35 36 37 38 39 40 41 42 43 44 45 46 47 48 49 50
000
NZUS93 KARX 231559
HRRWXR

CURRENT HOURLY OBSERVATIONS ACROSS
MUCH OF THE UPPER MISSISSIPPI VALLEY
NATIONAL WEATHER SERVICE LA CROSSE WI
1100 AM CDT TUE AUG 23 2016


...SOUTHEAST MINNESOTA...


CITY           SKY/WX    TMP DP  RH WIND       PRES   REMARKS
ROCHESTER      MOSUNNY   72  65  78 S9        30.03F
ROCHESTER/MAYO FAIR      74  63  68 SE8G17    30.02F
WINONA         PTSUNNY   77  63  61 S5        30.04F
AUSTIN         CLOUDY    73  64  73 S10G16    30.01F
ALBERT LEA     PTSUNNY   73  66  78 S12G17    29.99S
DODGE CENTER   CLOUDY    75  64  69 S15       30.01S
PRESTON        MOSUNNY   73  64  73 S10       30.06F
OWATONNA       MOSUNNY   73  64  73 SE14G20   29.98S
FARIBAULT      MOSUNNY   75  66  73 S12G17    29.97S
$$

...ELSEWHERE IN MINNESOTA...


CITY           SKY/WX    TMP DP  RH WIND       PRES   REMARKS
MINNEAPOLIS    MOSUNNY   77  62  59 S12       29.94S
INTNL FALLS    MOSUNNY   75  65  70 VRB7      29.82S
DULUTH         MOSUNNY   75  63  66 S15G22    29.91S
RED WING       PTSUNNY   79  63  57 SE8       29.97F
REDWOOD FALLS  MOSUNNY   77  64  64 S20G25    29.87F
MANKATO        MOSUNNY   75  64  69 S10G23    29.94S
WORTHINGTON    CLOUDY    72  66  81 S16       29.92S
FAIRMONT       NOT AVBL
$$

...SOUTHWEST WISCONSIN...


CITY           SKY/WX    TMP DP  RH WIND       PRES   REMARKS
LA CROSSE      PTSUNNY   78  69  73 S13       30.06S
PRAIRIE DU CHI MOSUNNY   76  62  61 SE6       30.09F
BOSCOBEL       MOSUNNY   78  62  57 S8G21     30.11F
LONE ROCK      NOT AVBL
PLATTEVILLE    SUNNY     74  66  77 S10       30.15F
FORT MC COY    MOSUNNY   76  63  64 S9G16     30.09F
MAUSTON-NEW LI SUNNY     76  64  67 S10       30.11S
VIROQUA        FAIR      73  62  68 S9        30.11S
WIS DELLS      NOT AVBL
$$

...ELSEWHERE IN WISCONSIN...


CITY           SKY/WX    TMP DP  RH WIND       PRES   REMARKS
MILWAUKEE      MOSUNNY   80  60  50 SW15      30.18F
MADISON        PTSUNNY   76  63  64 S9        30.15S
GREEN BAY      SUNNY     76  64  66 S10G18    30.13S
EAU CLAIRE     NOT AVBL
BLACK RVR FLS  FAIR      76  60  57 SW6       30.06F
MEDFORD        SUNNY     72  64  76 S9G16     30.07F
WAUSAU         SUNNY     74  61  63 S14       30.08F
WIS RAPIDS     SUNNY     76  63  64 S12       30.11F
MARSHFIELD     SUNNY     77  62  59 S10       30.08F
RICE LAKE      SUNNY     74  62  66 SE13      30.01S
$$

...NORTHEAST IOWA...


CITY           SKY/WX    TMP DP  RH WIND       PRES   REMARKS
WATERLOO       SUNNY     76  65  68 S14       30.05F
DUBUQUE        SUNNY     74  65  73 S12       30.15S
DECORAH        SUNNY     75  64  69 S8G17     30.07F
MASON CITY     MOSUNNY   75  66  73 S15       30.03S
CHARLES CITY   SUNNY     73  68  83 S14       30.06S
OELWEIN        SUNNY     75  66  73 S14       30.09F
$$

...ELSEWHERE IN IOWA...


CITY           SKY/WX    TMP DP  RH WIND       PRES   REMARKS
DES MOINES     MOSUNNY   79  68  69 S15       30.03S
IOWA CITY      MOSUNNY   76  66  71 S13       30.13F
FORT DODGE     MOSUNNY   75  66  73 S12G17    30.00F
MARSHALLTOWN   NOT AVBL
CEDAR RAPIDS   SUNNY     74  68  81 S12       30.11S
$$

...NORTHERN ILLINOIS...


CITY           SKY/WX    TMP DP  RH WIND       PRES   REMARKS
CHICAGO-OHARE  MOSUNNY   76  60  57 S15       30.21F
CHICAGO-MIDWAY MOSUNNY   78  59  51 S16       30.22S
MOLINE         SUNNY     77  64  64 S12       30.15F
ROCKFORD       MOSUNNY   75  63  66 SW13      30.20S
PEORIA         SUNNY     77  63  61 S13       30.20F
$$

NOTE: "FAIR" INDICATES FEW OR NO CLOUDS BELOW 12,000 FEET WITH NO
SIGNIFICANT WEATHER AND/OR OBSTRUCTIONS TO VISIBILITY. WIND
SPEEDS ARE IN MILES-PER-HOUR.




USA.gov is the U.S. government's official web portal to all federal, state and local government web resources and services.